Location: Winnipeg
(49.8830°N, 97.1670°W)
Time: 03:52:50
(UTC-05:00)

Envisat - Pass Details

Date: 09 March 2024
Orbit: 762 x 764 km, 98.3° (Epoch: 21 April)

Event Time Altitude Azimuth Distance (km) Brightness Sun altitude
Rises 02:39:55 0° 27° (NNE) 3,241 7.1 -37.7°
Reaches altitude 10° 02:43:00 10° 46° (NE) 2,309 6.2 -37.4°
Enters shadow 02:46:13 18° 86° (E) 1,825 5.3 -37.1°
